Flag for Argentina Weather past 2 weeks in Tucumán, Tucumán, Argentina

Now
88 °F

Broken clouds.


Feels Like: 96 °F
Forecast: N/A
Wind: 7 mph from Southwest

Location: Tucuman Aerodrome

Current Time: Dec 20, 2014 at 7:21:45 PM

Latest Report: Dec 20, 2014 at 6:00 PM


Visibility: N/A

Pressure: 29.36 "Hg

Humidity: 62%

Dew point: 73 °F

Location of TucumánLocation

Historic Weather in Tucumán — Graph

°F

Tucumán temperature yesterday

Maximum temperature yesterday: 93 °F (at 4:00 PM)
Minimum temperature yesterday: 64 °F (at 7:00 AM)
Average temperature yesterday: 80 °F

Past Weeks' High & Low Weather Summary

 TemperatureHumidityPressure
High102 °F (Dec 5, 6:00 PM)100% (Dec 11, 4:00 AM)30.07 "Hg (Dec 11, 4:00 AM)
Low64 °F (Dec 19, 7:00 AM)16% (Dec 5, 6:00 PM)29.36 "Hg (Dec 20, 5:00 PM)
Average75 °F78%29.83 "Hg
* Reported Dec 5 6:00 PM — Dec 20 6:00 PM, Tucumán, Weather by CustomWeather, © 2014

Note: Actual official high and low records may vary slightly from our data, if they occured in-between our weather recording intervals... More about our weather records

Advertising

Tucumán weather history for previous 24 hours

 ConditionsComfort  
Time TempWeatherWind HumidityBarometerVisibility
6:00 PM
Dec 20
88 °FBroken clouds.7 mph62%29.36 "HgN/A
5:00 PM90 °FScattered clouds.10 mph63%29.36 "HgN/A
4:00 PM91 °FPassing clouds.9 mph59%29.39 "HgN/A
3:00 PM93 °FPassing clouds.7 mph53%29.45 "HgN/A
2:00 PM91 °FPassing clouds.5 mph56%29.45 "HgN/A
1:00 PM90 °FPassing clouds.5 mph55%29.47 "HgN/A
12:00 PM88 °FSunny.5 mph59%29.50 "Hg10 mi
11:00 AM88 °FSunny.7 mph62%29.50 "Hg10 mi
10:00 AM86 °FSunny.9 mph59%29.50 "Hg10 mi
9:00 AM82 °FSunny.7 mph66%29.50 "Hg10 mi
8:00 AM77 °FSunny.9 mph74%29.50 "Hg10 mi
7:00 AM75 °FSunny.12 mph78%29.47 "Hg10 mi
6:00 AM73 °FSunny.12 mph83%29.47 "Hg10 mi
5:00 AM75 °FClear.9 mph78%29.47 "Hg10 mi
4:00 AM72 °FClear.7 mph83%29.50 "Hg10 mi
3:00 AM73 °FClear.5 mph83%29.53 "Hg10 mi
2:00 AM77 °FClear.12 mph74%29.56 "Hg10 mi
1:00 AM75 °FClear.5 mph83%29.59 "Hg10 mi
12:00 AM75 °FClear.7 mph83%29.59 "Hg10 mi
11:00 PM
Dec 19
79 °FClear.5 mph79%29.56 "Hg10 mi
10:00 PM79 °FClear.3 mph74%29.56 "Hg10 mi
9:00 PM79 °FPassing clouds.3 mph79%29.53 "HgN/A
8:00 PM82 °FPassing clouds.12 mph70%29.53 "HgN/A
7:00 PM88 °FPassing clouds.14 mph55%29.50 "HgN/A
Weather by CustomWeather, © 2014

See weather overviewHow to use our weather pages